Time,TemperatureF,DewpointF,PressureIn,WindDirection,WindDirectionDegrees,WindSpeedMPH,WindSpeedGustMPH,Humidity,HourlyPrecipIn,Conditions,Clouds,dailyrainin,SoftwareType,DateUTC
2013-09-08 00:12:00,58.0,40.0,-100.00,SSE,167,1.0,2.0,51,0.00,,,-99.99,,2013-09-08 07:12:00,
2013-09-08 00:23:00,58.0,40.0,-100.00,SSE,167,1.0,2.0,51,0.00,,,-99.99,,2013-09-08 07:23:00,
2013-09-08 00:42:00,57.0,40.0,-100.00,SSE,168,0.0,2.0,52,0.00,,,-99.99,,2013-09-08 07:42:00,
2013-09-08 01:11:00,57.0,39.0,-100.00,SSE,161,0.0,2.0,51,0.00,,,-99.99,,2013-09-08 08:11:00,
2013-09-08 01:22:00,57.0,37.0,-100.00,SE,138,0.0,2.0,47,0.00,,,-99.99,,2013-09-08 08:22:00,
2013-09-08 01:32:00,57.0,37.0,-100.00,SE,138,0.0,2.0,47,0.00,,,-99.99,,2013-09-08 08:32:00,
2013-09-08 01:42:00,57.0,37.0,-100.00,SE,138,0.0,2.0,47,0.00,,,-99.99,,2013-09-08 08:42:00,
2013-09-08 01:52:00,56.0,39.0,-100.00,SSE,164,0.0,1.0,53,0.00,,,-99.99,,2013-09-08 08:52:00,
2013-09-08 02:02:00,56.0,39.0,-100.00,SSE,164,0.0,1.0,53,0.00,,,-99.99,,2013-09-08 09:02:00,
2013-09-08 02:43:00,55.0,40.0,-100.00,SSE,165,0.0,1.0,57,0.00,,,-99.99,,2013-09-08 09:43:00,
2013-09-08 02:53:00,55.0,40.0,-100.00,SSE,165,0.0,1.0,57,0.00,,,-99.99,,2013-09-08 09:53:00,
2013-09-08 11:13:00,62.0,47.0,-100.00,West,271,1.0,4.0,59,0.00,,,-99.99,,2013-09-08 18:13:00,
2013-09-08 11:22:00,62.0,47.0,-100.00,West,271,1.0,4.0,59,0.00,,,-99.99,,2013-09-08 18:22:00,
2013-09-08 11:52:00,64.0,48.0,-100.00,West,265,1.0,5.0,56,0.00,,,-99.99,,2013-09-08 18:52:00,
2013-09-08 12:01:00,64.0,48.0,-100.00,West,265,1.0,5.0,56,0.00,,,-99.99,,2013-09-08 19:01:00,
2013-09-08 12:03:00,67.0,50.0,-100.00,WNW,291,2.0,4.0,55,0.00,,,-99.99,,2013-09-08 19:03:00,
2013-09-08 12:21:00,65.0,46.0,-100.00,WNW,288,0.0,6.0,51,0.00,,,-99.99,,2013-09-08 19:21:00,
2013-09-08 12:42:00,67.0,50.0,-100.00,WNW,291,2.0,4.0,55,0.00,,,-99.99,,2013-09-08 19:42:00,
2013-09-08 12:52:00,67.0,50.0,-100.00,WNW,291,2.0,4.0,55,0.00,,,-99.99,,2013-09-08 19:52:00,
2013-09-08 14:11:00,79.0,33.0,-100.00,NNW,330,1.0,4.0,19,0.00,,,-99.99,,2013-09-08 21:11:00,
2013-09-08 14:12:00,76.0,41.0,-100.00,NW,318,1.0,4.0,28,0.00,,,-99.99,,2013-09-08 21:12:00,
2013-09-08 14:22:00,76.0,41.0,-100.00,NW,318,1.0,4.0,28,0.00,,,-99.99,,2013-09-08 21:22:00,
2013-09-08 14:44:00,79.0,33.0,-100.00,NNW,330,1.0,4.0,19,0.00,,,-99.99,,2013-09-08 21:44:00,
2013-09-08 14:54:00,79.0,33.0,-100.00,NNW,330,1.0,4.0,19,0.00,,,-99.99,,2013-09-08 21:54:00,
2013-09-08 15:04:00,79.0,33.0,-100.00,NNW,330,1.0,4.0,19,0.00,,,-99.99,,2013-09-08 22:04:00,
2013-09-08 15:24:00,79.0,35.0,-100.00,North,-999,-999.0,-999.0,20,0.00,,,-99.99,,2013-09-08 22:24:00,
2013-09-08 15:43:00,79.0,34.0,-100.00,NNW,340,1.0,5.0,20,0.00,,,-99.99,,2013-09-08 22:43:00,
2013-09-08 15:53:00,80.0,34.0,-100.00,NNW,333,1.0,5.0,19,0.00,,,-99.99,,2013-09-08 22:53:00,
2013-09-08 16:12:00,80.0,34.0,-100.00,NNW,336,1.0,4.0,19,0.00,,,-99.99,,2013-09-08 23:12:00,
2013-09-08 16:22:00,80.0,34.0,-100.00,NNW,336,1.0,4.0,19,0.00,,,-99.99,,2013-09-08 23:22:00,
2013-09-08 16:34:00,80.0,34.0,-100.00,NNW,336,1.0,4.0,19,0.00,,,-99.99,,2013-09-08 23:34:00,
2013-09-08 17:22:00,79.0,37.0,-100.00,NNW,340,1.0,4.0,22,0.00,,,-99.99,,2013-09-09 00:22:00,
2013-09-08 17:42:00,78.0,39.0,-100.00,NNW,337,1.0,5.0,25,0.00,,,-99.99,,2013-09-09 00:42:00,
2013-09-08 18:50:00,68.0,48.0,-100.00,SSE,152,1.0,3.0,48,0.00,,,-99.99,,2013-09-09 01:50:00,
2013-09-08 19:11:00,70.0,45.0,-100.00,SSE,150,1.0,6.0,40,0.00,,,-99.99,,2013-09-09 02:11:00,
2013-09-08 19:53:00,67.0,43.0,-100.00,East,95,1.0,4.0,41,0.00,,,-99.99,,2013-09-09 02:53:00,
2013-09-08 20:22:00,65.0,45.0,-100.00,South,178,1.0,2.0,48,0.00,,,-99.99,,2013-09-09 03:22:00,
2013-09-08 20:44:00,67.0,43.0,-100.00,East,95,1.0,4.0,41,0.00,,,-99.99,,2013-09-09 03:44:00,
2013-09-08 21:43:00,63.0,39.0,-100.00,SSE,167,2.0,3.0,41,0.00,,,-99.99,,2013-09-09 04:43:00,
2013-09-08 21:54:00,63.0,39.0,-100.00,SSE,167,2.0,3.0,41,0.00,,,-99.99,,2013-09-09 04:54:00,
2013-09-08 22:23:00,62.0,38.0,-100.00,SSE,168,1.0,3.0,41,0.00,,,-99.99,,2013-09-09 05:23:00,
2013-09-08 22:43:00,62.0,35.0,-100.00,SSE,165,1.0,2.0,37,0.00,,,-99.99,,2013-09-09 05:43:00,
2013-09-08 23:12:00,62.0,35.0,-100.00,SSE,168,1.0,2.0,36,0.00,,,-99.99,,2013-09-09 06:12:00,
2013-09-08 23:21:00,62.0,35.0,-100.00,SSE,164,1.0,2.0,37,0.00,,,-99.99,,2013-09-09 06:21:00,
2013-09-08 23:32:00,62.0,35.0,-100.00,SSE,164,1.0,2.0,37,0.00,,,-99.99,,2013-09-09 06:32:00,
2013-09-08 23:42:00,62.0,35.0,-100.00,SSE,164,1.0,2.0,37,0.00,,,-99.99,,2013-09-09 06:42:00,